Location: Dietlishof
(47.7559°N, 8.7785°E)
Time: 10:46:18
(UTC+00:00)

Daily predictions for brighter satellites

Satellite Brightness Start Highest point End
(mag) Time Altitude Azimuth Time Altitude Azimuth Time Altitude Azimuth
Cosmos 405 Rocket 3.4 19:40:38 10° SSW 19:44:29 60° WNW 19:48:27 10° N
Cosmos 2360 4.5 19:38:59 10° NNW 19:44:38 60° ENE 19:50:15 10° SE
Resurs 01 Rocket 1.7 19:40:21 10° SSE 19:44:44 67° ENE 19:49:10 10° N
Cosmos 1437 Rocket 3.0 19:42:28 10° NNW 19:46:16 69° W 19:50:06 10° S
In-Cosmos 22 Rocket 4.4 19:42:55 10° SSW 19:48:12 73° WNW 19:53:35 10° N
MetOp-B 4.4 19:44:34 10° SE 19:49:47 56° ENE 19:55:02 10° N
SL-16 R/B 4.2 19:46:22 10° N 19:50:07 18° NE 19:53:52 10° E
OBJECT-B 3.3 19:48:11 10° SSW 19:50:46 22° W 19:53:22 10° NW
SPOT 1/Viking Rocket 3.9 19:46:53 10° SE 19:51:52 50° ENE 19:56:55 10° N
BREEZE-M DEB (TANK) 3.7 19:38:44 10° WSW 19:52:39 86° NNW 19:56:24 10° ENE
USA 234 4.3 19:48:04 10° E 19:54:11 43° N 20:00:18 10° WNW
Cosmos 1825 Rocket 4.5 19:50:38 10° SSW 19:54:52 52° WNW 19:59:07 10° N
USA 245 4.4 19:54:52 10° SE 20:00:16 49° ENE 20:04:47 10° N
RESURS DK-1 3.6 19:57:36 10° SSE 20:00:53 23° ESE 20:04:11 10° NE
BREEZE-M DEB (TANK) 2.1 19:58:17 10° WNW 20:00:56 84° NNE 20:07:02 10° ESE
Cosmos 1408 4.0 19:58:32 10° SSW 20:02:00 40° WNW 20:05:27 10° N
Cosmos 44 Rocket 3.8 19:57:21 10° S 20:02:12 42° ESE 20:07:07 10° NE
GENESIS II 4.3 19:59:20 10° NW 20:03:14 67° NE 20:06:52 11° SE
Ariane Rocket 3.7 19:59:43 10° S 20:04:42 55° W 20:09:42 10° NNW
Cosmos 1437 3.0 20:07:56 10° NNW 20:10:40 55° W 20:13:22 10° S
SPOT 5 3.7 20:07:14 11° SE 20:10:50 30° ENE 20:14:38 10° N
Cosmos 1818 4.3 20:06:29 10° SW 20:11:52 60° NW 20:17:19 10° NNE
ARIANE 5 R/B 3.4 20:08:22 11° SE 20:12:20 39° ENE 20:16:30 10° N
CZ-2C R/B 3.9 20:10:28 10° NNE 20:14:57 52° E 20:19:20 10° S
Cosmos 1697 Rocket 2.9 20:11:09 10° NNW 20:16:50 75° WSW 20:22:28 10° SSE
Cosmos 1633 2.9 20:13:28 10° SSE 20:16:54 45° E 20:20:23 10° NNE
ERS-2 3.3 20:16:23 10° N 20:19:54 47° WNW 20:23:24 10° SW
ISS -2.7 20:18:43 10° WNW 20:21:59 45° N 20:25:15 10° E
Cosmos 2221 2.7 20:19:44 10° NNW 20:24:01 72° W 20:28:18 10° S
Cosmos 2278 4.0 20:18:26 10° NNW 20:24:03 59° ENE 20:28:45 15° SE
Cosmos 2082 Rocket 2.3 20:19:57 10° S 20:25:24 54° ESE 20:30:55 10° NE
Cosmos 371 Rocket 3.7 20:22:07 10° NNW 20:26:49 50° ENE 20:30:30 16° SE
CARTOSAT-1 3.7 20:23:15 13° SSE 20:26:58 62° ENE 20:31:15 10° N
Cosmos 1833 Rocket 2.9 20:24:04 10° SSW 20:29:42 76° WNW 20:35:23 10° NNE
Terra 2.6 20:29:10 15° SE 20:32:37 37° ENE 20:37:00 10° N
SPOT 3 Rocket 4.1 20:27:47 10° S 20:32:56 58° W 20:38:07 10° NNW
Cosmos 1242 Rocket 4.4 20:30:08 10° NNW 20:33:16 28° W 20:36:21 10° SSW
Gbstr 26 Del rocket 3.6 20:29:51 10° WNW 20:33:30 47° N 20:37:24 10° E
BREEZE-M DEB (TANK) 3.7 20:31:03 10° SW 20:34:47 54° SE 20:47:41 10° ENE
Cosmos 1092 Rocket 4.4 20:30:54 12° SSE 20:36:24 47° E 20:42:23 10° NNE
NOSS 3-4 (A) 4.0 20:33:03 10° SW 20:38:51 61° NW 20:45:10 10° NE
NOSS 3-4 (C) 4.0 20:33:10 10° SW 20:38:56 61° NW 20:45:16 10° NE
Cosmos 773 Rocket 4.0 20:34:21 10° SSW 20:39:34 86° ESE 20:44:47 10° NNE
Cosmos 2360 Rocket 4.1 20:36:56 10° N 20:40:54 19° NE 20:44:51 10° E
USA 276 2.8 20:38:12 10° W 20:41:19 54° N 20:44:25 10° ENE
ATLAS 2AS CENTAUR R/B 3.1 20:39:52 10° SW 20:47:49 90° NW 20:55:34 10° NE
Cosmos 1606 3.4 20:44:13 10° NNW 20:47:53 50° W 20:51:16 12° S
Cosmos 2369 4.1 20:45:26 10° NW 20:50:59 57° WSW 20:55:33 15° S
COSMOS 2406 3.9 20:46:15 10° SW 20:51:50 58° WNW 20:57:29 10° NNE
Meteor 2-3 Rocket 4.0 20:47:27 15° SSE 20:51:55 52° E 20:57:27 10° NNE
ERBS 2.6 20:50:20 10° WNW 20:53:28 48° SW 20:54:49 28° SSE
Cosmos 2026 Rocket 4.3 20:51:04 16° SSE 20:56:01 53° E 21:02:07 10° NNE
Cosmos 1812 4.4 20:54:45 10° NNE 20:57:46 21° ENE 20:59:11 17° E
Cosmos 1782 3.4 20:55:14 10° N 20:59:05 42° ENE 21:00:54 25° SE
Cosmos 2151 2.9 20:57:41 16° S 21:01:00 81° E 21:05:17 10° NNE
USA 267 3.4 20:55:40 10° ENE 21:02:02 51° SE 21:08:22 10° SSW
Cosmos 332 Rocket 4.0 20:57:12 10° NNW 21:02:04 63° ENE 21:04:54 24° SE
GP-B 3.0 20:57:43 10° N 21:02:11 75° E 21:05:06 21° S
Nadezhda 4 Rocket 4.2 20:56:14 10° SSW 21:02:22 72° W 21:08:36 10° N
Cosmos 1980 Rocket 2.5 20:57:16 10° NNW 21:02:48 62° WSW 21:06:48 19° S
ERS-1 Rocket 3.0 21:00:53 20° SSE 21:04:28 84° WSW 21:09:32 10° NNW
Spot 2 Rocket 3.9 21:01:00 15° S 21:05:12 59° W 21:10:16 10° NNW
ATLAS 3B R/B 2.8 20:58:49 10° NW 21:05:55 84° SW 21:11:03 22° SSE
Cosmos 2322 Rocket 3.0 21:04:53 10° NNW 21:10:12 40° NE 21:13:48 19° ESE
Cosmos 1151 Rocket 3.3 21:11:14 10° N 21:15:29 52° ENE 21:17:20 30° SE
Meteor 2-19 Rocket 4.5 21:10:39 10° SSW 21:16:39 81° W 21:22:45 10° N
CZ-4B DEB 4.2 21:17:39 44° SE 21:18:30 71° ENE 21:21:40 10° N
Cosmos 1538 Rocket 4.0 21:13:46 10° SSW 21:19:00 86° WNW 21:24:14 10° NNE
BREEZE-M DEB (TANK) 1.7 21:16:59 10° W 21:19:10 65° N 21:19:24 56° NE
Resurs 01 Rocket 4.2 21:19:14 10° WSW 21:21:42 15° W 21:24:10 10° NW
Okean 3 Rocket 4.0 21:20:47 31° SSE 21:22:30 47° E 21:26:49 10° NNE
Cosmos 158 Rocket 3.9 21:19:19 16° SSW 21:23:28 77° ESE 21:28:45 10° NNE
Cosmos 2098 Rocket 4.5 21:22:21 10° SW 21:24:48 23° WNW 21:27:30 10° NNW
Cosmos 1428 Rocket 4.4 21:23:34 17° S 21:28:26 90° E 21:34:36 10° N
Cosmos 1553 Rocket 4.0 21:25:34 10° N 21:31:37 66° ENE 21:34:51 29° SSE
H-2A R/B 3.4 21:28:21 10° NNE 21:32:31 65° ESE 21:34:07 36° S
SL-16 R/B 2.2 21:29:34 10° NNW 21:35:16 74° ENE 21:38:08 30° SE
USA 234 3.3 21:31:41 18° ESE 21:36:45 77° NNE 21:43:19 10° NW
Cosmos 2219 Rocket 4.1 21:34:04 10° N 21:38:13 21° NE 21:42:21 10° E
RESURS DK-1 3.7 21:34:45 10° SW 21:38:41 41° NW 21:42:39 10° NNE
Cosmos 1271 Rocket 3.3 21:37:13 10° NNW 21:41:05 52° W 21:42:41 31° SSW
ARIANE 5 R/B 4.4 21:45:54 14° SW 21:48:53 25° W 21:52:37 10° NW
SPOT 5 4.1 21:46:28 18° SW 21:48:55 30° W 21:52:45 10° NW
Cosmos 304 Rocket 4.2 21:46:20 10° NNW 21:51:00 53° WSW 21:52:54 32° SSW
Cosmos 1417 Rocket 4.5 21:51:40 10° N 21:58:03 85° E 22:01:06 33° SSE
Cosmos 1408 Rocket 3.7 21:57:11 46° SE 21:58:09 58° E 22:02:27 10° NNE
S3M 4.1 21:52:28 10° N 21:58:52 72° E 22:01:50 34° SSE
ISS -3.7 21:55:35 10° WNW 21:58:48 66° SW 21:58:48 66° SW
Cosmos 923 Rocket 4.1 22:02:24 23° SSW 22:05:48 78° WNW 22:11:12 10° NNE
COBE Rocket 3.8 22:06:55 45° SE 22:08:16 71° ENE 22:12:55 10° N
Meteor 2-14 Rocket 4.4 22:05:49 28° SSW 22:09:14 83° W 22:15:26 10° N
Cosmos 2082 Rocket 4.0 22:04:52 10° WSW 22:09:48 30° NW 22:14:47 10° NNE
Terra 3.3 22:08:03 19° SW 22:10:26 29° W 22:14:35 10° NW
Cosmos 220 Rocket 3.9 22:08:51 10° NNW 22:13:11 83° WSW 22:14:04 56° S
Cosmos 2056 Rocket 3.5 22:12:11 10° NNW 22:17:38 89° ENE 22:19:23 44° SSE
USA 276 2.7 22:14:31 10° WNW 22:17:00 52° WNW 22:17:00 52° WNW
Cosmos 1515 Rocket 3.5 22:13:36 10° N 22:18:04 83° W 22:19:04 54° S
Sich 1 4.5 22:17:56 24° E 22:18:12 24° E 22:21:42 10° NE
Cosmos 2333 Rocket 3.1 22:13:24 10° NNW 22:18:45 41° NE 22:21:43 23° ESE
ATLAS 5 CENTAUR R/B 4.0 22:15:06 10° NNW 22:19:24 25° NNE 22:24:20 10° E
Gbstr 26 Del rocket 2.7 22:16:34 10° WNW 22:20:25 72° SSW 22:20:51 65° SSE
Cosmos 2360 Rocket 2.1 22:20:08 10° NNW 22:25:48 83° ENE 22:27:48 42° SE
Cosmos 1862 3.7 22:25:14 44° SW 22:26:10 58° WNW 22:30:08 10° N
IRIDIUM 114 4.4 22:21:00 10° N 22:26:14 69° E 22:27:43 46° SSE
ALOS 2 2.9 22:26:42 45° ESE 22:27:36 55° ENE 22:31:54 10° N
Cosmos 1812 3.9 22:30:07 10° NNW 22:33:35 32° W 22:34:14 30° WSW
Cosmos 2322 4.3 22:28:46 10° NNW 22:34:21 49° NE 22:37:00 29° ESE
IRIDIUM 103 4.2 22:30:08 10° N 22:35:24 82° E 22:36:51 49° SSE
Cosmos 1371 Rocket 4.3 22:33:14 10° NNW 22:38:30 57° WSW 22:39:57 42° SSW
Cosmos 2112 Rocket 4.4 22:37:57 27° SW 22:40:45 61° WNW 22:46:00 10° NNE
SL-27 R/B 2.5 22:43:09 78° NNE 22:43:09 78° NNE 22:46:33 10° NNE
Cosmos 1680 Rocket 4.2 22:39:42 22° SW 22:42:57 51° WNW 22:48:07 10° NNE
Cosmos 1707 Rocket 4.5 22:40:16 10° N 22:44:17 35° ENE 22:45:01 33° E
USA 267 3.6 22:38:43 10° NE 22:45:11 65° NNW 22:51:39 10° WSW
Cosmos 2084 3.4 22:51:07 63° E 22:51:07 63° E 22:54:59 10° NE
COSMOS 2487 4.1 22:52:30 24° ENE 22:52:30 24° ENE 22:54:24 10° NE
Cosmos 2237 Rocket 4.2 22:47:46 10° N 22:52:15 23° NE 22:56:44 10° E
IRIDIUM 106 4.4 22:48:29 10° N 22:53:42 71° W 22:55:07 48° SSW
Cosmos 2322 Rocket 3.0 22:49:04 10° NW 22:54:14 38° WSW 22:55:35 33° SW
ATLAS 3B R/B 4.3 22:50:46 10° WNW 22:55:47 21° WSW 22:58:17 17° SW
Cosmos 2285 Rocket 4.1 22:50:01 10° NNW 22:56:19 69° ENE 22:58:54 37° SE
Cosmos 2315 Rocket 4.0 22:54:29 10° NNW 23:00:47 75° W 23:03:02 42° S
NOSS 2-1 (C) 3.3 23:02:14 59° N 23:02:14 59° N 23:05:11 10° NE
Cosmos 1805 Rocket 3.4 23:02:35 70° S 23:03:05 86° E 23:07:34 10° N
NOSS 2-1 (D) 3.4 23:09:39 57° NNW 23:09:39 57° NNW 23:12:51 10° NE
Meteor 1-27 Rocket 4.2 23:08:19 10° NNW 23:13:43 50° W 23:15:18 39° SW
Cosmos 1500 Rocket 4.4 23:14:13 35° WSW 23:15:14 41° WNW 23:19:26 10° N
COSMOS 2428 2.8 23:10:35 10° NNW 23:16:19 70° ENE 23:18:23 40° SE
Cosmos 2333 4.1 23:10:51 10° NNW 23:16:27 72° WSW 23:17:46 52° S
PSLV R/B 4.4 23:12:02 10° NNE 23:16:35 42° E 23:17:06 40° ESE
SL-16 R/B 3.9 23:14:49 10° NW 23:18:44 19° W 23:19:59 18° WSW
Cosmos 1500 4.0 23:19:16 40° E 23:19:16 40° E 23:22:39 10° NNE
USA 234 3.7 23:19:01 37° SSW 23:20:06 39° SW 23:26:11 10° WNW
Cosmos 1602 3.7 23:21:42 80° ENE 23:21:42 80° ENE 23:25:28 10° N
Cosmos 292 Rocket 4.4 23:18:10 10° NW 23:22:38 40° WSW 23:23:00 39° WSW
Cosmos 2219 Rocket 2.1 23:17:19 10° NNW 23:22:57 88° WSW 23:24:30 50° SSE
Cosmos 1048 Rocket 3.9 23:23:23 57° SSE 23:24:14 67° ESE 23:29:20 10° NNE
Cosmos 2228 Rocket 3.9 23:25:42 10° NNW 23:29:44 37° W 23:30:09 36° WSW
SL-08 ROCKET BODY 4.4 23:29:43 47° S 23:31:33 77° E 23:37:40 10° NNE
Thor Agena Rocket 3.5 23:27:00 10° NNE 23:32:03 68° ESE 23:32:59 55° SSE
SL-08 R/B 4.5 23:31:53 45° SSE 23:33:54 73° E 23:40:05 10° NNE
Cosmos 494 Rocket 4.0 23:33:22 55° SSE 23:34:09 64° ESE 23:39:14 10° NNE
Cosmos 489 Rocket 4.4 23:34:52 46° S 23:36:54 79° ESE 23:43:18 10° NNE
COSMOS 2455 2.7 23:35:09 47° SSW 23:37:00 80° ESE 23:43:03 10° NE
Nimbus 7 Rocket 4.5 23:31:59 10° NNE 23:38:01 75° WNW 23:40:13 41° SW
NOSS 0 Rocket 4.2 23:33:21 10° NNW 23:39:35 66° ENE 23:42:50 29° SE
Cosmos 1470 Rocket 4.0 23:40:37 45° ESE 23:40:56 46° E 23:45:06 10° NNE
Cosmos 1340 Rocket 4.3 23:45:19 26° E 23:45:23 26° E 23:48:40 10° NE
Cosmos 1515 4.4 23:42:15 10° NNW 23:45:31 41° WNW 23:45:31 41° WNW
Cosmos 1933 Rocket 4.5 23:47:27 35° ESE 23:48:03 37° E 23:52:11 10° NNE
Cosmos 1745 Rocket 4.1 23:46:52 42° SSE 23:48:56 67° E 23:55:08 10° NNE
Cosmos 1666 Rocket 3.5 23:49:24 62° WSW 23:49:52 69° W 23:54:18 10° N
Cosmos 1633 Rocket 2.9 23:49:55 72° SW 23:50:19 82° W 23:54:44 10° N
Cosmos 1452 Rocket 4.0 23:45:31 10° NW 23:50:29 44° WSW 23:51:09 42° SW
Helios 1A 4.4 23:50:54 24° ESE 23:52:26 31° ENE 23:56:12 10° N
Okean 1-7 4.2 23:48:37 10° N 23:52:31 34° ENE 23:53:38 29° ESE
Meteor 1-18 Rocket 4.3 23:46:40 10° NNW 23:52:34 75° W 23:54:13 48° S
Sich 1 4.0 23:54:53 33° W 23:55:41 36° WNW 23:59:44 10° N
